Index of /download_area/CASP9/templates/T0575

[ICO]NameLast modifiedSizeDescription

[DIR]Parent Directory  -  
[   ]1jt0C.T0575.pdb.res16-Jun-2011 12:24 145K 
[   ]1jtxE.T0575.pdb.res16-Jun-2011 12:24 147K 
[   ]1jumE.T0575.pdb.res16-Jun-2011 12:24 147K 
[   ]1rkwE.T0575.pdb.res16-Jun-2011 12:24 149K 
[   ]1ui5A.T0575.pdb.res16-Jun-2011 12:24 146K 
[   ]1ui6A.T0575.pdb.res16-Jun-2011 12:24 141K 
[   ]1ui6B.T0575.pdb.res16-Jun-2011 12:24 143K 
[   ]2dtzE.T0575.pdb.res16-Jun-2011 12:24 145K 
[   ]2g0eE.T0575.pdb.res16-Jun-2011 12:24 147K 
[   ]2ibdA.T0575.pdb.res16-Jun-2011 12:24 145K 
[   ]2id6A.T0575.pdb.res16-Jun-2011 12:24 165K 
[   ]3bqzB.T0575.pdb.res16-Jun-2011 12:24 138K 
[   ]3br0B.T0575.pdb.res16-Jun-2011 12:24 146K 
[   ]3br2E.T0575.pdb.res16-Jun-2011 12:24 144K 
[   ]3br5E.T0575.pdb.res16-Jun-2011 12:24 143K 
[   ]3btcE.T0575.pdb.res16-Jun-2011 12:24 146K 
[   ]3btlE.T0575.pdb.res16-Jun-2011 12:24 146K 
[   ]3dewA.T0575.pdb.res16-Jun-2011 12:24 167K 
[   ]3f1bA.T0575.pdb.res16-Jun-2011 12:24 133K 
[   ]3ih2A.T0575.pdb.res16-Jun-2011 12:24 157K 
[   ]3ih3A.T0575.pdb.res16-Jun-2011 12:24 154K 
[   ]3ih4A.T0575.pdb.res16-Jun-2011 12:24 158K 
[   ]3kz9A.T0575.pdb.res16-Jun-2011 12:24 160K 
[   ]3kz9B.T0575.pdb.res16-Jun-2011 12:24 167K 
[   ]3kz9C.T0575.pdb.res16-Jun-2011 12:24 168K 

Apache Server at www.predictioncenter.org Port 80